Location: Unspecified
(41.1850°N, 73.2650°W)
Time: 03:20:38
(UTC+00:00)

SL-08 R/B - Pass Details

Date: 14 March 2026
Orbit: 946 x 992 km, 83.0° (Epoch: 13 April)

Event Time Altitude Azimuth Distance (km) Brightness Sun altitude
Exits shadow 03:48:11 12° 309° (NW) 2,533 7.1 -47.9°
Drops below altitude 10° 03:49:25 10° 321° (NW) 2,674 7.3 -48.0°
Sets 03:53:40 0° 349° (N) 3,623 8.1 -48.4°
